Location: Karcze
(52.0945°N, 22.4786°E)
Time: 20:43:43
(UTC+00:00)

Transit 2A Rocket - Pass Details

Date: 02 August 2021
Orbit: 586 x 917 km, 66.7° (Epoch: 27 September)

Event Time Altitude Azimuth Distance (km) Brightness Sun altitude
Rises 18:21:14 0° 318° (NW) 3,141 10.0 -1.2°
Reaches altitude 10° 18:23:56 10° 332° (NNW) 2,278 8.6 -1.5°
Maximum altitude 18:28:15 25° 27° (NNE) 1,559 6.7 -2.1°
Drops below altitude 10° 18:32:51 10° 82° (E) 2,453 7.2 -2.7°
Sets 18:35:51 0° 95° (E) 3,438 7.8 -3.1°
